| time (UTC) | temp F | wind direction | speed MPH | gust MPH | rain 1hr in | rain 24hr in | rain mn in | humidity % | barometer mb |
| 20260904224614 | 90 | 0 | 0.0 | 0.0 | 0.00 | 0.00 | 0.00 | 79 | 1011.3 |
| 20260904223109 | 91 | 0 | 0.0 | 0.0 | 0.00 | 0.00 | 0.00 | 77 | 1011.3 |
| 20260904221609 | 92 | 0 | 0.0 | 0.0 | 0.00 | 0.00 | 0.00 | 76 | 1011.4 |
| 20260904220113 | 94 | 0 | 0.0 | 0.0 | 0.00 | 0.00 | 0.00 | 74 | 1011.4 |
| 20260904214614 | 96 | 0 | 0.0 | 0.0 | 0.00 | 0.00 | 0.00 | 71 | 1011.4 |
| 20260904213110 | 97 | 0 | 0.0 | 0.0 | 0.00 | 0.00 | 0.00 | 70 | 1011.4 |
| 20260904211613 | 99 | 0 | 0.0 | 0.0 | 0.00 | 0.00 | 0.00 | 64 | 1011.6 |
| 20260904210108 | 99 | 0 | 0.0 | 0.0 | 0.00 | 0.00 | 0.00 | 61 | 1011.8 |
| 20260904204604 | 99 | 0 | 0.0 | 0.0 | 0.00 | 0.00 | 0.00 | 60 | 1011.8 |
| 20260904203108 | 97 | 0 | 0.0 | 0.0 | 0.00 | 0.00 | 0.00 | 63 | 1012.1 |
| 20260904201637 | 96 | 0 | 0.0 | 0.0 | 0.00 | 0.00 | 0.00 | 58 | 1012.3 |
| 20260904200122 | 94 | 0 | 0.0 | 0.0 | 0.00 | 0.00 | 0.00 | 72 | 1012.5 |
| 20260904194613 | 94 | 0 | 0.0 | 0.0 | 0.00 | 0.00 | 0.00 | 74 | 1012.8 |
| 20260904193111 | 94 | 0 | 0.0 | 2.0 | 0.00 | 0.00 | 0.00 | 69 | 1013.1 |
| 20260904191606 | 92 | 0 | 0.0 | 4.0 | 0.00 | 0.00 | 0.00 | 70 | 1013.4 |
| 20260904190120 | 89 | 0 | 0.0 | 5.0 | 0.00 | 0.00 | 0.00 | 74 | 1013.6 |
| 20260904184605 | 90 | 0 | 0.0 | 0.0 | 0.00 | 0.00 | 0.00 | 77 | 1013.7 |
| 20260904183108 | 94 | 0 | 0.0 | 0.0 | 0.00 | 0.00 | 0.00 | 70 | 1013.7 |
| 20260904181607 | 96 | 0 | 0.0 | 4.0 | 0.00 | 0.00 | 0.00 | 60 | 1013.7 |
| 20260904180111 | 97 | 0 | 1.0 | 6.0 | 0.00 | 0.00 | 0.00 | 63 | 1013.8 |
| 20260904174607 | 95 | 0 | 0.0 | 1.0 | 0.00 | 0.00 | 0.00 | 62 | 1014.0 |
| 20260904173128 | 96 | 0 | 0.0 | 0.0 | 0.00 | 0.00 | 0.00 | 60 | 1014.2 |
| 20260904171611 | 96 | 0 | 0.0 | 0.0 | 0.00 | 0.00 | 0.00 | 59 | 1014.3 |
| 20260904170110 | 95 | 0 | 0.0 | 2.0 | 0.00 | 0.00 | 0.00 | 62 | 1014.5 |
| 20260904164612 | 95 | 0 | 0.0 | 1.0 | 0.00 | 0.00 | 0.00 | 63 | 1014.4 |
| 20260904163102 | 94 | 0 | 0.0 | 1.0 | 0.00 | 0.00 | 0.00 | 61 | 1014.4 |
| 20260904161605 | 94 | 0 | 0.0 | 5.0 | 0.00 | 0.00 | 0.00 | 63 | 1014.5 |
| 20260904160111 | 94 | 0 | 0.0 | 0.0 | 0.00 | 0.00 | 0.00 | 66 | 1014.5 |
| 20260904154607 | 92 | 0 | 0.0 | 0.0 | 0.00 | 0.00 | 0.00 | 65 | 1014.5 |
| 20260904153107 | 92 | 0 | 0.0 | 1.0 | 0.00 | 0.00 | 0.00 | 66 | 1014.5 |
| 20260904151616 | 91 | 0 | 0.0 | 1.0 | 0.00 | 0.00 | 0.00 | 70 | 1014.5 |
| 20260904150130 | 90 | 0 | 0.0 | 0.0 | 0.00 | 0.00 | 0.00 | 71 | 1014.5 |
| 20260904144604 | 90 | 0 | 0.0 | 0.0 | 0.00 | 0.00 | 0.00 | 75 | 1014.6 |
| 20260904143117 | 88 | 0 | 0.0 | 0.0 | 0.00 | 0.00 | 0.00 | 82 | 1014.4 |
| 20260904141617 | 86 | 0 | 0.0 | 0.0 | 0.00 | 0.00 | 0.00 | 87 | 1014.4 |
| 20260904140109 | 83 | 0 | 0.0 | 0.0 | 0.00 | 0.00 | 0.00 | 97 | 1014.3 |
| 20260904134620 | 79 | 0 | 0.0 | 0.0 | 0.00 | 0.00 | 0.00 | 99 | 1014.3 |
| 20260904133113 | 78 | 0 | 0.0 | 0.0 | 0.00 | 0.00 | 0.00 | 100 | 1014.3 |
| 20260904131607 | 77 | 0 | 0.0 | 0.0 | 0.00 | 0.00 | 0.00 | 100 | 1014.3 |
| 20260904130110 | 75 | 0 | 0.0 | 0.0 | 0.00 | 0.00 | 0.00 | 100 | 1014.1 |
| 20260904124605 | 74 | 0 | 0.0 | 0.0 | 0.00 | 0.00 | 0.00 | 100 | 1014.1 |
| 20260904123108 | 73 | 0 | 0.0 | 0.0 | 0.00 | 0.00 | 0.00 | 99 | 1013.9 |
| 20260904121607 | 72 | 0 | 0.0 | 0.0 | 0.00 | 0.00 | 0.00 | 99 | 1013.9 |
| 20260904120109 | 72 | 0 | 0.0 | 0.0 | 0.00 | 0.00 | 0.00 | 99 | 1013.9 |
| 20260904114607 | 72 | 0 | 0.0 | 0.0 | 0.00 | 0.00 | 0.00 | 99 | 1013.6 |
| 20260904113106 | 71 | 0 | 0.0 | 0.0 | 0.00 | 0.00 | 0.00 | 99 | 1013.7 |
| 20260904111608 | 71 | 0 | 0.0 | 0.0 | 0.00 | 0.00 | 0.00 | 99 | 1013.8 |
| 20260904110106 | 71 | 0 | 0.0 | 0.0 | 0.00 | 0.00 | 0.00 | 99 | 1013.6 |
| 20260904104610 | 71 | 0 | 0.0 | 0.0 | 0.00 | 0.00 | 0.00 | 99 | 1013.3 |
| 20260904103115 | 71 | 0 | 0.0 | 0.0 | 0.00 | 0.00 | 0.00 | 99 | 1013.1 |
| 20260904101603 | 71 | 0 | 0.0 | 0.0 | 0.00 | 0.00 | 0.00 | 99 | 1013.2 |
| 20260904100105 | 71 | 0 | 0.0 | 0.0 | 0.00 | 0.00 | 0.00 | 99 | 1013.1 |
| 20260904094607 | 72 | 0 | 0.0 | 0.0 | 0.00 | 0.00 | 0.00 | 99 | 1013.2 |
| 20260904093114 | 72 | 0 | 0.0 | 0.0 | 0.00 | 0.00 | 0.00 | 99 | 1013.0 |
| 20260904091605 | 72 | 0 | 0.0 | 0.0 | 0.00 | 0.00 | 0.00 | 99 | 1013.0 |
| 20260904090107 | 72 | 0 | 0.0 | 0.0 | 0.00 | 0.00 | 0.00 | 99 | 1013.0 |
| 20260904084607 | 72 | 0 | 0.0 | 0.0 | 0.00 | 0.00 | 0.00 | 99 | 1012.9 |
| 20260904083105 | 72 | 0 | 0.0 | 0.0 | 0.00 | 0.00 | 0.00 | 99 | 1012.9 |
| 20260904081610 | 73 | 0 | 0.0 | 0.0 | 0.00 | 0.00 | 0.00 | 99 | 1012.9 |
| 20260904080104 | 73 | 0 | 0.0 | 0.0 | 0.00 | 0.00 | 0.00 | 99 | 1012.8 |
| 20260904074603 | 73 | 0 | 0.0 | 0.0 | 0.00 | 0.00 | 0.00 | 99 | 1012.7 |
| 20260904073103 | 73 | 0 | 0.0 | 0.0 | 0.00 | 0.00 | 0.00 | 99 | 1012.7 |
| 20260904071606 | 73 | 0 | 0.0 | 0.0 | 0.00 | 0.00 | 0.00 | 99 | 1012.7 |
| 20260904070114 | 73 | 0 | 0.0 | 0.0 | 0.00 | 0.00 | 0.00 | 99 | 1012.8 |
| 20260904064605 | 73 | 0 | 0.0 | 0.0 | 0.00 | 0.00 | 0.00 | 98 | 1012.8 |
| 20260904063123 | 74 | 0 | 0.0 | 0.0 | 0.00 | 0.00 | 0.00 | 98 | 1012.8 |
| 20260904061605 | 74 | 0 | 0.0 | 0.0 | 0.00 | 0.00 | 0.00 | 99 | 1012.8 |
| 20260904060106 | 74 | 0 | 0.0 | 0.0 | 0.00 | 0.00 | 0.00 | 98 | 1012.9 |
| 20260904054613 | 74 | 0 | 0.0 | 0.0 | 0.00 | 0.00 | 0.00 | 98 | 1013.0 |
| 20260904053104 | 74 | 0 | 0.0 | 0.0 | 0.00 | 0.00 | 0.00 | 98 | 1013.0 |
| 20260904051610 | 74 | 0 | 0.0 | 0.0 | 0.00 | 0.00 | 0.00 | 98 | 1013.2 |
| 20260904050106 | 74 | 0 | 0.0 | 0.0 | 0.00 | 0.00 | 0.00 | 98 | 1013.2 |
| 20260904044608 | 74 | 0 | 0.0 | 0.0 | 0.00 | 0.00 | 0.00 | 98 | 1013.3 |
| 20260904043104 | 74 | 0 | 0.0 | 0.0 | 0.00 | 0.00 | 0.00 | 98 | 1013.3 |
| 20260904041607 | 75 | 0 | 0.0 | 0.0 | 0.00 | 0.00 | 0.00 | 98 | 1013.3 |
| 20260904040111 | 75 | 0 | 0.0 | 0.0 | 0.00 | 0.00 | 0.00 | 97 | 1013.3 |
| 20260904034603 | 75 | 0 | 0.0 | 0.0 | 0.00 | 0.00 | 0.00 | 97 | 1013.4 |
| 20260904033104 | 76 | 0 | 0.0 | 0.0 | 0.00 | 0.00 | 0.00 | 97 | 1013.5 |
| 20260904031612 | 76 | 0 | 0.0 | 0.0 | 0.00 | 0.00 | 0.00 | 97 | 1013.5 |
| 20260904030110 | 75 | 0 | 0.0 | 0.0 | 0.00 | 0.00 | 0.00 | 96 | 1013.5 |
| 20260904024611 | 76 | 0 | 0.0 | 0.0 | 0.00 | 0.00 | 0.00 | 96 | 1013.5 |
| 20260904023108 | 76 | 0 | 0.0 | 0.0 | 0.00 | 0.00 | 0.00 | 95 | 1013.4 |
| 20260904021609 | 76 | 0 | 0.0 | 0.0 | 0.00 | 0.00 | 0.00 | 95 | 1013.3 |
| 20260904020118 | 77 | 0 | 0.0 | 0.0 | 0.00 | 0.00 | 0.00 | 94 | 1013.3 |
| 20260904014624 | 77 | 0 | 0.0 | 0.0 | 0.00 | 0.00 | 0.00 | 93 | 1013.2 |
| 20260904013106 | 77 | 0 | 0.0 | 0.0 | 0.00 | 0.00 | 0.00 | 93 | 1013.0 |
| 20260904011609 | 78 | 0 | 0.0 | 0.0 | 0.00 | 0.00 | 0.00 | 92 | 1012.9 |
| 20260904010104 | 78 | 0 | 0.0 | 0.0 | 0.00 | 0.00 | 0.00 | 91 | 1012.9 |
| 20260904004608 | 79 | 0 | 0.0 | 0.0 | 0.00 | 0.00 | 0.00 | 91 | 1012.5 |
| 20260904003106 | 80 | 0 | 0.0 | 0.0 | 0.00 | 0.00 | 0.00 | 89 | 1012.5 |
| 20260904001606 | 81 | 0 | 0.0 | 0.0 | 0.00 | 0.00 | 0.00 | 89 | 1012.3 |
| 20260904000125 | 82 | 0 | 0.0 | 0.0 | 0.00 | 0.00 | 0.00 | 88 | 1012.1 |
| 20260903234617 | 83 | 0 | 0.0 | 0.0 | 0.00 | 0.00 | 0.00 | 87 | 1012.3 |
| 20260903233111 | 84 | 0 | 0.0 | 0.0 | 0.00 | 0.00 | 0.00 | 85 | 1012.1 |
| 20260903231610 | 86 | 0 | 0.0 | 0.0 | 0.00 | 0.00 | 0.00 | 83 | 1012.0 |
| 20260903230110 | 89 | 0 | 0.0 | 0.0 | 0.00 | 0.00 | 0.00 | 79 | 1012.1 |